Sommer S — WDG3830 — position and weather

sailwx.info

Track history (hours):
 
Tides and Currents Weather Stations Pressure Air Temp Water Temp Dewpoint Dewpoint Depression Visibility Wind Speed Wind Dir Waves Ship Positions

Sommer S

Owner: Shaver Transportation Company, Portland, OR. More information available from US FCC via Universal Licensing System and Coast Guard Vessel Documentation Center.

Last reported at 2014-Oct-31 08:03 UTC. Time now 2014-Oct-31 15:47 UTC.
Position N 46°05' W 122°56'.

Length 25 m.

Type: Tug. MMSI: 367530080.

Date/timePositionNaut miles runAvg speedWind from/ knotsBaromVisibWave heightAir tempDewpointWater temp
2014-Oct-31 08:03N 46°05' W 122°56'0 0.0
2014-Oct-31 07:33N 46°05' W 122°56'0 0.0
2014-Oct-31 06:33N 46°05' W 122°56'0 0.0
2014-Oct-31 05:33N 46°05' W 122°56'0 0.0
2014-Oct-31 04:33N 46°05' W 122°56'0 0.0
2014-Oct-31 03:33N 46°05' W 122°56'0 0.0
2014-Oct-31 02:33N 46°05' W 122°56'0 0.0
2014-Oct-31 01:33N 46°05' W 122°56'0 0.0
2014-Oct-31 00:33N 46°05' W 122°56'5 4.6
2014-Oct-30 23:33N 46°02' W 122°52'0 0.0
2014-Oct-30 22:33N 46°02' W 122°52'5 5.3
2014-Oct-30 21:33N 46°06' W 122°57'1 0.7
2014-Oct-30 20:33N 46°05' W 122°56'0 0.0
2014-Oct-30 19:33N 46°05' W 122°56'0 0.0
2014-Oct-30 18:33N 46°05' W 122°56'0 0.4
2014-Oct-30 17:33N 46°05' W 122°55'1 1.0
2014-Oct-30 16:33N 46°06' W 122°56'1 0.7
2014-Oct-30 15:33N 46°05' W 122°56'0 0.0
2014-Oct-30 14:33N 46°05' W 122°56'0 0.0
2014-Oct-30 13:33N 46°05' W 122°56'1 1.3
2014-Oct-30 12:33N 46°06' W 122°57'1 1.3
2014-Oct-30 11:33N 46°05' W 122°56'0 0.0
2014-Oct-30 10:33N 46°05' W 122°56'0 0.0
2014-Oct-30 09:33N 46°05' W 122°56'0 0.0
2014-Oct-30 08:33N 46°05' W 122°56'0 0.0
2014-Oct-30 07:33N 46°05' W 122°56'0 0.0
2014-Oct-30 06:33N 46°05' W 122°56'0 0.0
2014-Oct-30 05:33N 46°05' W 122°56'0 0.0
2014-Oct-30 04:33N 46°05' W 122°56'0 0.0
2014-Oct-30 03:33N 46°05' W 122°56'0 0.0
2014-Oct-30 02:33N 46°05' W 122°56'0 0.0
2014-Oct-30 01:33N 46°05' W 122°56'0 0.0
2014-Oct-30 00:33N 46°05' W 122°56'0 0.0
2014-Oct-29 23:33N 46°05' W 122°56'0 0.0
2014-Oct-29 22:33N 46°05' W 122°56'0 0.0
2014-Oct-29 21:33N 46°05' W 122°56'2 1.7
2014-Oct-29 20:33N 46°07' W 122°58'2 1.7
2014-Oct-29 19:33N 46°05' W 122°56'0 0.0
2014-Oct-29 18:33N 46°05' W 122°56'0 0.0
2014-Oct-29 17:33N 46°05' W 122°56'0 0.0
2014-Oct-29 16:33N 46°05' W 122°56'0 0.0
2014-Oct-29 15:33N 46°05' W 122°56'0 0.0
2014-Oct-29 14:33N 46°05' W 122°56'0 0.0
2014-Oct-29 13:33N 46°05' W 122°56'0 0.0
2014-Oct-29 12:33N 46°05' W 122°56'0 0.0
2014-Oct-29 11:33N 46°05' W 122°56'2 2.5
2014-Oct-29 10:33N 46°04' W 122°53'2 2.1
2014-Oct-29 09:34N 46°02' W 122°53'0 0.0
2014-Oct-29 08:33N 46°02' W 122°53'0 0.0
2014-Oct-29 07:33N 46°02' W 122°53'0 0.0
2014-Oct-29 06:33N 46°02' W 122°53'0 0.0
2014-Oct-29 05:33N 46°02' W 122°53'0 0.0
2014-Oct-29 04:34N 46°02' W 122°53'2 1.6
2014-Oct-29 03:34N 46°03' W 122°53'0 0.0
2014-Oct-29 02:34N 46°03' W 122°53'0 0.0
2014-Oct-29 01:34N 46°03' W 122°53'0 0.0
2014-Oct-29 00:34N 46°03' W 122°53'0 0.0
2014-Oct-28 23:34N 46°03' W 122°53'0 0.2
2014-Oct-28 22:34N 46°03' W 122°53'1 0.5
2014-Oct-28 21:34N 46°04' W 122°53'6 6.1
2014-Oct-28 20:34N 45°58' W 122°50'1312.5
2014-Oct-28 19:34N 45°46' W 122°46'8 7.6
2014-Oct-28 18:33N 45°39' W 122°45'1 0.8
2014-Oct-28 17:34N 45°38' W 122°44'1 0.8
2014-Oct-28 16:33N 45°39' W 122°45'0 0.0
2014-Oct-28 15:34N 45°39' W 122°45'0 0.0
2014-Oct-28 14:33N 45°39' W 122°45'0 0.0
2014-Oct-28 13:33N 45°39' W 122°45'0 0.5
2014-Oct-28 12:34N 45°39' W 122°45'1 1.1
2014-Oct-28 11:33N 45°40' W 122°46'1 0.6
2014-Oct-28 10:34N 45°39' W 122°45'0 0.0
2014-Oct-28 09:33N 45°39' W 122°45'0 0.0
2014-Oct-28 08:33N 45°39' W 122°45'0 0.0
2014-Oct-28 07:34N 45°39' W 122°45'0 0.0
2014-Oct-28 06:33N 45°39' W 122°45'0 0.0
2014-Oct-28 05:33N 45°39' W 122°45'0 0.0
2014-Oct-28 04:33N 45°39' W 122°45'0 0.0
2014-Oct-28 03:34N 45°39' W 122°45'1 0.8
2014-Oct-28 02:33N 45°39' W 122°45'0 0.0
2014-Oct-28 01:34N 45°39' W 122°45'0 0.0
2014-Oct-28 00:34N 45°39' W 122°45'2 2.2
2014-Oct-27 23:34N 45°37' W 122°47'7 7.0
2014-Oct-27 22:33N 45°32' W 122°41'1 0.9
2014-Oct-27 21:34N 45°33' W 122°42'6 6.1
2014-Oct-27 20:34N 45°37' W 122°47'2 2.0
2014-Oct-27 19:34N 45°39' W 122°45'2 2.1
2014-Oct-27 18:33N 45°38' W 122°42'2 1.8
2014-Oct-27 17:33N 45°39' W 122°45'0 0.0
2014-Oct-27 16:33N 45°39' W 122°45'0 0.0
2014-Oct-27 15:33N 45°39' W 122°45'0 0.0
2014-Oct-27 14:34N 45°39' W 122°45'0 0.0
2014-Oct-27 13:34N 45°39' W 122°45'0 0.0
2014-Oct-27 12:34N 45°39' W 122°45'1 1.5
2014-Oct-27 11:34N 45°38' W 122°47'2 2.1
2014-Oct-27 10:33N 45°38' W 122°44'1 0.7
2014-Oct-27 09:33N 45°39' W 122°45'0 0.0
2014-Oct-27 08:34N 45°39' W 122°45'0 0.0
2014-Oct-27 07:34N 45°39' W 122°45'1 0.8
2014-Oct-27 06:33N 45°39' W 122°46'0 0.0
2014-Oct-27 05:34N 45°39' W 122°46'0 0.0
2014-Oct-27 04:34N 45°39' W 122°46'0 0.0
2014-Oct-27 03:33N 45°39' W 122°46'0 0.0
2014-Oct-27 02:33N 45°39' W 122°46'0 0.0
2014-Oct-27 01:34N 45°39' W 122°46'0 0.0
2014-Oct-27 00:34N 45°39' W 122°46'0 0.0
2014-Oct-26 23:34N 45°39' W 122°46'0 0.0
2014-Oct-26 22:34N 45°39' W 122°46'0 0.0
2014-Oct-26 21:33N 45°39' W 122°46'0 0.0
2014-Oct-26 20:33N 45°39' W 122°46'0 0.0
2014-Oct-26 19:33N 45°39' W 122°46'0 0.0
2014-Oct-26 18:34N 45°39' W 122°46'0 0.0
2014-Oct-26 17:33N 45°39' W 122°46'0 0.0
2014-Oct-26 16:34N 45°39' W 122°46'0 0.0
2014-Oct-26 15:34N 45°39' W 122°46'0 0.0
2014-Oct-26 14:33N 45°39' W 122°46'0 0.0
2014-Oct-26 13:34N 45°39' W 122°46'0 0.0
2014-Oct-26 12:34N 45°39' W 122°46'0 0.0
2014-Oct-26 11:34N 45°39' W 122°46'0 0.0
2014-Oct-26 10:34N 45°39' W 122°46'0 0.0
2014-Oct-26 09:34N 45°39' W 122°46'0 0.0
2014-Oct-26 08:34N 45°39' W 122°46'0 0.0
2014-Oct-26 07:34N 45°39' W 122°46'0 0.0
2014-Oct-26 06:33N 45°39' W 122°46'0 0.0
2014-Oct-26 05:33N 45°39' W 122°46'0 0.0
2014-Oct-26 04:33N 45°39' W 122°46'0 0.0
2014-Oct-26 03:33N 45°39' W 122°46'0 0.0
2014-Oct-26 02:33N 45°39' W 122°46'0 0.1
2014-Oct-26 01:33N 45°39' W 122°46'0 0.1
2014-Oct-26 00:33N 45°39' W 122°46'0 0.0
2014-Oct-25 23:33N 45°39' W 122°46'0 0.0
2014-Oct-25 22:34N 45°39' W 122°46'0 0.0
2014-Oct-25 21:34N 45°39' W 122°46'0 0.0
2014-Oct-25 20:34N 45°39' W 122°46'0 0.1
2014-Oct-25 19:33N 45°39' W 122°46'29 3.1
2014-Oct-25 10:13N 46°06' W 122°58'6 1.4
2014-Oct-25 06:02N 46°02' W 122°53'0 0.0
2014-Oct-25 03:57N 46°02' W 122°53'0 0.0
2014-Oct-25 02:56N 46°02' W 122°53'0 0.1
2014-Oct-25 02:17N 46°02' W 122°53'0 0.0
2014-Oct-25 01:12N 46°02' W 122°53'0 0.0
2014-Oct-25 00:32N 46°02' W 122°53'0 0.0
2014-Oct-24 23:31N 46°02' W 122°53'0 0.1
2014-Oct-24 22:01N 46°02' W 122°53'0 0.1
2014-Oct-24 20:05N 46°02' W 122°52'24 1.7
2014-Oct-24 05:32N 45°38' W 122°42'30 1.2
2014-Oct-23 05:14N 46°06' W 122°57'1 1.5
2014-Oct-23 04:29N 46°05' W 122°55'1 0.9
2014-Oct-23 03:24N 46°06' W 122°56'1 0.3
2014-Oct-23 00:03N 46°05' W 122°55'0 0.0
2014-Oct-22 23:08N 46°05' W 122°55'0 0.0
2014-Oct-22 22:33N 46°05' W 122°55'0 0.0
2014-Oct-22 16:33N 46°05' W 122°55'3 0.6
2014-Oct-22 11:47N 46°07' W 122°59'0 1.1
2014-Oct-22 11:27N 46°07' W 122°58'0 0.0
2014-Oct-22 10:12N 46°07' W 122°58'6 4.7
2014-Oct-22 08:56N 46°03' W 122°53'0 0.3
2014-Oct-22 08:21N 46°03' W 122°53'4 1.5
2014-Oct-22 05:56N 46°05' W 122°56'1 0.1
2014-Oct-21 21:16N 46°06' W 122°57'30 3.1
2014-Oct-21 11:32N 45°38' W 122°42'  
Track history (hours):
 
Tides and Currents Weather Stations Pressure Air Temp Water Temp Dewpoint Dewpoint Depression Visibility Wind Speed Wind Dir Waves Ship Positions

Sommer S

Owner: Shaver Transportation Company, Portland, OR. More information available from US FCC via Universal Licensing System and Coast Guard Vessel Documentation Center.

Last reported at 2014-Oct-31 08:03 UTC. Time now 2014-Oct-31 15:47 UTC.
Position N 46°05' W 122°56'.

Length 25 m.

Type: Tug. MMSI: 367530080.

Date/timePositionNaut miles runAvg speedWind from/ knotsBaromVisibWave heightAir tempDewpointWater temp
2014-Oct-31 08:03N 46°05' W 122°56'0 0.0
2014-Oct-31 07:33N 46°05' W 122°56'0 0.0
2014-Oct-31 06:33N 46°05' W 122°56'0 0.0
2014-Oct-31 05:33N 46°05' W 122°56'0 0.0
2014-Oct-31 04:33N 46°05' W 122°56'0 0.0
2014-Oct-31 03:33N 46°05' W 122°56'0 0.0
2014-Oct-31 02:33N 46°05' W 122°56'0 0.0
2014-Oct-31 01:33N 46°05' W 122°56'0 0.0
2014-Oct-31 00:33N 46°05' W 122°56'5 4.6
2014-Oct-30 23:33N 46°02' W 122°52'0 0.0
2014-Oct-30 22:33N 46°02' W 122°52'5 5.3
2014-Oct-30 21:33N 46°06' W 122°57'1 0.7
2014-Oct-30 20:33N 46°05' W 122°56'0 0.0
2014-Oct-30 19:33N 46°05' W 122°56'0 0.0
2014-Oct-30 18:33N 46°05' W 122°56'0 0.4
2014-Oct-30 17:33N 46°05' W 122°55'1 1.0
2014-Oct-30 16:33N 46°06' W 122°56'1 0.7
2014-Oct-30 15:33N 46°05' W 122°56'0 0.0
2014-Oct-30 14:33N 46°05' W 122°56'0 0.0
2014-Oct-30 13:33N 46°05' W 122°56'1 1.3
2014-Oct-30 12:33N 46°06' W 122°57'1 1.3
2014-Oct-30 11:33N 46°05' W 122°56'0 0.0
2014-Oct-30 10:33N 46°05' W 122°56'0 0.0
2014-Oct-30 09:33N 46°05' W 122°56'0 0.0
2014-Oct-30 08:33N 46°05' W 122°56'0 0.0
2014-Oct-30 07:33N 46°05' W 122°56'0 0.0
2014-Oct-30 06:33N 46°05' W 122°56'0 0.0
2014-Oct-30 05:33N 46°05' W 122°56'0 0.0
2014-Oct-30 04:33N 46°05' W 122°56'0 0.0
2014-Oct-30 03:33N 46°05' W 122°56'0 0.0
2014-Oct-30 02:33N 46°05' W 122°56'0 0.0
2014-Oct-30 01:33N 46°05' W 122°56'0 0.0
2014-Oct-30 00:33N 46°05' W 122°56'0 0.0
2014-Oct-29 23:33N 46°05' W 122°56'0 0.0
2014-Oct-29 22:33N 46°05' W 122°56'0 0.0
2014-Oct-29 21:33N 46°05' W 122°56'2 1.7
2014-Oct-29 20:33N 46°07' W 122°58'2 1.7
2014-Oct-29 19:33N 46°05' W 122°56'0 0.0
2014-Oct-29 18:33N 46°05' W 122°56'0 0.0
2014-Oct-29 17:33N 46°05' W 122°56'0 0.0
2014-Oct-29 16:33N 46°05' W 122°56'0 0.0
2014-Oct-29 15:33N 46°05' W 122°56'0 0.0
2014-Oct-29 14:33N 46°05' W 122°56'0 0.0
2014-Oct-29 13:33N 46°05' W 122°56'0 0.0
2014-Oct-29 12:33N 46°05' W 122°56'0 0.0
2014-Oct-29 11:33N 46°05' W 122°56'2 2.5
2014-Oct-29 10:33N 46°04' W 122°53'2 2.1
2014-Oct-29 09:34N 46°02' W 122°53'0 0.0
2014-Oct-29 08:33N 46°02' W 122°53'0 0.0
2014-Oct-29 07:33N 46°02' W 122°53'0 0.0
2014-Oct-29 06:33N 46°02' W 122°53'0 0.0
2014-Oct-29 05:33N 46°02' W 122°53'0 0.0
2014-Oct-29 04:34N 46°02' W 122°53'2 1.6
2014-Oct-29 03:34N 46°03' W 122°53'0 0.0
2014-Oct-29 02:34N 46°03' W 122°53'0 0.0
2014-Oct-29 01:34N 46°03' W 122°53'0 0.0
2014-Oct-29 00:34N 46°03' W 122°53'0 0.0
2014-Oct-28 23:34N 46°03' W 122°53'0 0.2
2014-Oct-28 22:34N 46°03' W 122°53'1 0.5
2014-Oct-28 21:34N 46°04' W 122°53'6 6.1
2014-Oct-28 20:34N 45°58' W 122°50'1312.5
2014-Oct-28 19:34N 45°46' W 122°46'8 7.6
2014-Oct-28 18:33N 45°39' W 122°45'1 0.8
2014-Oct-28 17:34N 45°38' W 122°44'1 0.8
2014-Oct-28 16:33N 45°39' W 122°45'0 0.0
2014-Oct-28 15:34N 45°39' W 122°45'0 0.0
2014-Oct-28 14:33N 45°39' W 122°45'0 0.0
2014-Oct-28 13:33N 45°39' W 122°45'0 0.5
2014-Oct-28 12:34N 45°39' W 122°45'1 1.1
2014-Oct-28 11:33N 45°40' W 122°46'1 0.6
2014-Oct-28 10:34N 45°39' W 122°45'0 0.0
2014-Oct-28 09:33N 45°39' W 122°45'0 0.0
2014-Oct-28 08:33N 45°39' W 122°45'0 0.0
2014-Oct-28 07:34N 45°39' W 122°45'0 0.0
2014-Oct-28 06:33N 45°39' W 122°45'0 0.0
2014-Oct-28 05:33N 45°39' W 122°45'0 0.0
2014-Oct-28 04:33N 45°39' W 122°45'0 0.0
2014-Oct-28 03:34N 45°39' W 122°45'1 0.8
2014-Oct-28 02:33N 45°39' W 122°45'0 0.0
2014-Oct-28 01:34N 45°39' W 122°45'0 0.0
2014-Oct-28 00:34N 45°39' W 122°45'2 2.2
2014-Oct-27 23:34N 45°37' W 122°47'7 7.0
2014-Oct-27 22:33N 45°32' W 122°41'1 0.9
2014-Oct-27 21:34N 45°33' W 122°42'6 6.1
2014-Oct-27 20:34N 45°37' W 122°47'2 2.0
2014-Oct-27 19:34N 45°39' W 122°45'2 2.1
2014-Oct-27 18:33N 45°38' W 122°42'2 1.8
2014-Oct-27 17:33N 45°39' W 122°45'0 0.0
2014-Oct-27 16:33N 45°39' W 122°45'0 0.0
2014-Oct-27 15:33N 45°39' W 122°45'0 0.0
2014-Oct-27 14:34N 45°39' W 122°45'0 0.0
2014-Oct-27 13:34N 45°39' W 122°45'0 0.0
2014-Oct-27 12:34N 45°39' W 122°45'1 1.5
2014-Oct-27 11:34N 45°38' W 122°47'2 2.1
2014-Oct-27 10:33N 45°38' W 122°44'1 0.7
2014-Oct-27 09:33N 45°39' W 122°45'0 0.0
2014-Oct-27 08:34N 45°39' W 122°45'0 0.0
2014-Oct-27 07:34N 45°39' W 122°45'1 0.8
2014-Oct-27 06:33N 45°39' W 122°46'0 0.0
2014-Oct-27 05:34N 45°39' W 122°46'0 0.0
2014-Oct-27 04:34N 45°39' W 122°46'0 0.0
2014-Oct-27 03:33N 45°39' W 122°46'0 0.0
2014-Oct-27 02:33N 45°39' W 122°46'0 0.0
2014-Oct-27 01:34N 45°39' W 122°46'0 0.0
2014-Oct-27 00:34N 45°39' W 122°46'0 0.0
2014-Oct-26 23:34N 45°39' W 122°46'0 0.0
2014-Oct-26 22:34N 45°39' W 122°46'0 0.0
2014-Oct-26 21:33N 45°39' W 122°46'0 0.0
2014-Oct-26 20:33N 45°39' W 122°46'0 0.0
2014-Oct-26 19:33N 45°39' W 122°46'0 0.0
2014-Oct-26 18:34N 45°39' W 122°46'0 0.0
2014-Oct-26 17:33N 45°39' W 122°46'0 0.0
2014-Oct-26 16:34N 45°39' W 122°46'0 0.0
2014-Oct-26 15:34N 45°39' W 122°46'0 0.0
2014-Oct-26 14:33N 45°39' W 122°46'0 0.0
2014-Oct-26 13:34N 45°39' W 122°46'0 0.0
2014-Oct-26 12:34N 45°39' W 122°46'0 0.0
2014-Oct-26 11:34N 45°39' W 122°46'0 0.0
2014-Oct-26 10:34N 45°39' W 122°46'0 0.0
2014-Oct-26 09:34N 45°39' W 122°46'0 0.0
2014-Oct-26 08:34N 45°39' W 122°46'0 0.0
2014-Oct-26 07:34N 45°39' W 122°46'0 0.0
2014-Oct-26 06:33N 45°39' W 122°46'0 0.0
2014-Oct-26 05:33N 45°39' W 122°46'0 0.0
2014-Oct-26 04:33N 45°39' W 122°46'0 0.0
2014-Oct-26 03:33N 45°39' W 122°46'0 0.0
2014-Oct-26 02:33N 45°39' W 122°46'0 0.1
2014-Oct-26 01:33N 45°39' W 122°46'0 0.1
2014-Oct-26 00:33N 45°39' W 122°46'0 0.0
2014-Oct-25 23:33N 45°39' W 122°46'0 0.0
2014-Oct-25 22:34N 45°39' W 122°46'0 0.0
2014-Oct-25 21:34N 45°39' W 122°46'0 0.0
2014-Oct-25 20:34N 45°39' W 122°46'0 0.1
2014-Oct-25 19:33N 45°39' W 122°46'29 3.1
2014-Oct-25 10:13N 46°06' W 122°58'6 1.4
2014-Oct-25 06:02N 46°02' W 122°53'0 0.0
2014-Oct-25 03:57N 46°02' W 122°53'0 0.0
2014-Oct-25 02:56N 46°02' W 122°53'0 0.1
2014-Oct-25 02:17N 46°02' W 122°53'0 0.0
2014-Oct-25 01:12N 46°02' W 122°53'0 0.0
2014-Oct-25 00:32N 46°02' W 122°53'0 0.0
2014-Oct-24 23:31N 46°02' W 122°53'0 0.1
2014-Oct-24 22:01N 46°02' W 122°53'0 0.1
2014-Oct-24 20:05N 46°02' W 122°52'24 1.7
2014-Oct-24 05:32N 45°38' W 122°42'30 1.2
2014-Oct-23 05:14N 46°06' W 122°57'1 1.5
2014-Oct-23 04:29N 46°05' W 122°55'1 0.9
2014-Oct-23 03:24N 46°06' W 122°56'1 0.3
2014-Oct-23 00:03N 46°05' W 122°55'0 0.0
2014-Oct-22 23:08N 46°05' W 122°55'0 0.0
2014-Oct-22 22:33N 46°05' W 122°55'0 0.0
2014-Oct-22 16:33N 46°05' W 122°55'3 0.6
2014-Oct-22 11:47N 46°07' W 122°59'0 1.1
2014-Oct-22 11:27N 46°07' W 122°58'0 0.0
2014-Oct-22 10:12N 46°07' W 122°58'6 4.7
2014-Oct-22 08:56N 46°03' W 122°53'0 0.3
2014-Oct-22 08:21N 46°03' W 122°53'4 1.5
2014-Oct-22 05:56N 46°05' W 122°56'1 0.1
2014-Oct-21 21:16N 46°06' W 122°57'30 3.1
2014-Oct-21 11:32N 45°38' W 122°42'  

Dump ship's entire track history